CZ-3B R/B, 42663

Orbit data source: Space-Track

CZ-3B R/B, 42663 is space debris in HEO originally from a launch on Wed, 12 Apr 2017 UTC launched from the Xichang Space Center, China (XSC). Debris objects in space refer to the collection of defunct objects orbiting the Earth. Examples of debris include non-operational satellites, rocket bodies, and fragments generated from explosions, collisions, or faulty payload assembly.

Loading next visibility...
CZ-3B R/B details
Identifier
42663, 2017-018B
Orbit
HEO
Last TLE update16 hours ago
Origin
Flag of CNCASC (CN / PRC)
ManufacturerCALT
MissionSpacecraft
Bus & MotorCZ-3A STAGE 3, Unknown motor
Mass~2,800 kg wet, ~2,800 kg dry
Launch date (UTC)
2017-04-12 (8 years ago)
Launch vehicleUnknown
Launch site
Xichang Space Center, China (XSC)
Object type
Payload
Rocket body
Debris
Shape & HBRCyl + 1 Nozzle, 12.38 m
Radar Cross Section32.704 m², Large (>1 m²)

Expand to show TLE details & history

TLE from 16 hours ago
0 CZ-3B R/B
1 42663U 17018B   24361.02854927  .00014383  00000-0  16563-2 0  9993
2 42663  20.6495 349.4369 6949078 349.8462   1.2431  2.72800691 63258
Epoch: 2024-12-26T00:41Z
Definitive object data (Epoch: 2024-12-26T00:41:06.656Z)
Latitude-0.00012°
Longitude-115.8605°
Altitude281.667 km
Speed10.063 km/s
True Right ascension23h 17m 43s
True Declination0° 00' 00"
Sunlit
Object was in daylight at TLE epoch
Visualization TLE readout
Latitude-9.42614°
Longitude89.90506°
Altitude18,689.94 km
Speed3.658 km/s
Apparent Right ascension12h 23m 33s
Apparent Declination-20° 44' 20"
Sunlit
Object is in daylight
Visualization observer readout
Local Sidereal Time16:02:27
Azimuth231.006° WSW
Elevation10.778°
Doppler factor1
Orbital elements
Apogee altitude30,300 km
Perigee altitude224.118 km
Semi-major axis21,640.196 km
Eccentricity0.6949078
Inclination20.6495°
RAAN349.4369°
Arg. of periapsis349.8462°
True anomaly9.56697°
Mean anomaly1.2431°
Eccentric anomaly4.06673°
Mean motion0.68179 °/min
BSTAR0.0016563
Orbital period528.02 mins
Loading maneuver chart data...
Loading historical data...
Loading historical data...
Loading historical data...
Loading historical data...
Loading historical data...
Loading historical data...
Loading historical data...
Other satellites on launch #18 in the year 2017 (2017-04-12 UTC)

CZ-3B R/B Visibility forecast

Observer location: undefined°, undefined

Span
Click to sort rows by Start time (UTC) header in descending order
Start Az.
Max El. time (UTC)
Max El. Az.
Max El.
End time (UTC)
End Az.
4 mins2024-12-26 16:40:15.384Z230.986° WSW2024-12-26 16:40:15.384Z230.986° WSW10.579°2024-12-26 16:44:15.384Z230.288° WSW
408 mins2024-12-27 03:15:15.384Z190.994° SSW2024-12-27 03:24:15.384Z136.015° SSE28.318°2024-12-27 10:03:15.384Z124.942° SE
111 mins2024-12-27 13:17:15.384Z269.021° W2024-12-27 14:01:15.384Z263.779° W13.213°2024-12-27 15:08:15.384Z261.866° W
|